Location: Brunsen
(51.8651°N, 9.8610°E)
Time: 21:24:54
(UTC+00:00)

CZ-2C R/B - Pass Details

Date: 17 August 2024
Orbit: 782 x 869 km, 98.3° (Epoch: 07 September)

Event Time Altitude Azimuth Distance (km) Brightness Sun altitude
Exits shadow 01:58:09 28° 226° (SW) 1,541 3.5 -16.9°
Maximum altitude 02:00:03 35° 265° (W) 1,313 3.3 -16.7°
Drops below altitude 10° 02:04:59 10° 331° (NNW) 2,429 5.3 -16.2°
Sets 02:07:31 0° 340° (NNW) 3,352 6.2 -15.9°
